Regional Weather Roundup
Issued by NWS

Home | Current Version | Previous Version | Text Only | Print | Product List | Glossary Off
Versions: 1 2 3 4 5 6 7 8 9 10 11 12 13 14 15 16 17 18 19 20 21 22 23 24 25 26 27 28 29 30 31 32 33 34 35 36 37 38 39 40 41 42 43 44 45 46 47 48 49 50

000
ASUS43 KFSD 042210
RWRSD

WEATHER ROUNDUP FOR SOUTH DAKOTA
NATIONAL WEATHER SERVICE SIOUX FALLS SD
500 PM CDT TUE AUG 04 2015

NOTE: "FAIR" INDICATES FEW OR NO CLOUDS BELOW 12,000 FEET WITH NO
SIGNIFICANT WEATHER AND/OR OBSTRUCTIONS TO VISIBILITY.


SDZ001>005-009-010-012>017-042300-
NORTHWEST AND NORTH CENTRAL SOUTH DAKOTA

CITY           SKY/WX    TMP DP  RH WIND       PRES   REMARKS
BUFFALO          N/A     87  58  37 SE23G31   29.86F
FAITH            N/A     86  56  35 SE15      29.94F
MOBRIDGE       MOSUNNY   86  62  44 SE13      29.93S
$$

SDZ012>016-024>037-041>051-057-063-072>074-042300-
SOUTHWEST AND SOUTH CENTRAL SOUTH DAKOTA

CITY           SKY/WX    TMP DP  RH WIND       PRES   REMARKS
RAPID CTY ARPT PTSUNNY   85  60  42 S12G21    29.94F
PIERRE         PTSUNNY   85  56  37 E18G24    29.92F
CUSTER         PTSUNNY   74  57  55 E13       30.08S
ELLSWORTH AFB  PTSUNNY   84  60  44 SE14      29.93
PHILIP         CLOUDY    83  62  49 SE10      29.92F
PINE RIDGE     PTSUNNY   81  60  48 SW8       29.97F
WINNER         FAIR      84  63  49 E14       29.94F
$$

SDZ004>011-016>023-039-040-042300-
NORTHEAST SOUTH DAKOTA

CITY           SKY/WX    TMP DP  RH WIND       PRES   REMARKS
ABERDEEN       MOSUNNY   82  56  40 E6        29.97S
WATERTOWN      PTSUNNY   80  55  42 SE9       30.00S
BROOKINGS      PTSUNNY   75  61  60 S7        30.02S
SISSETON         N/A     81  54  39 NE7       29.98F
$$

SDZ017-020-022-023-036>040-048>070-042300-
SOUTHEAST SOUTH DAKOTA

CITY           SKY/WX    TMP DP  RH WIND       PRES   REMARKS
SIOUX FALLS    CLOUDY    77  62  59 E6        29.99F
HURON          PTSUNNY   80  62  54 SE9       29.96F
CHAMBERLAIN    MOSUNNY   80  63  55 SE12      29.95F
MITCHELL       MOSUNNY   81  63  54 SE9       29.97F
YANKTON        SUNNY     79  63  57 E12       29.95F
$$

ABBREVIATIONS USED IN REMARKS
   TC - TEMPERATURE IN CELSIUS
  WCI - WIND CHILL INDEX
   HX - HEAT INDEX
  VSB - VISIBILITY



USA.gov is the U.S. government's official web portal to all federal, state and local government web resources and services.